sat.trackr.live / text

‹ back to catalog

STARLINK-11388 [DTC]

NORAD 62092 · 2024-220E

PAYLOAD ACTIVE UNKNOWN

§ Identity

Operator
Country
US
Launch date
2024-11-25
Launch site
AFETR
Launch vehicle
Mass (kg)
RCS (m²)

Purposes: comms

External: N2YO · Heavens-Above · Gunter

§ Orbital elements

Epoch: 2026-05-24T19:22:35.516928Z

Period
91.67 min
Inclination
43.0031°
Eccentricity
0.0002442
Mean motion
15.70883469 rev/d
Perigee alt
354.7 km
Apogee alt
358.0 km
Semi-major
6,734.5 km
B*
1.5660e-3
RAAN
304.3387°
Arg perigee
273.1392°
Mean anomaly
86.9196°
Rev number
8,692

§ Raw data

STARLINK-11388 [DTC]1 62092U 24220E   26144.80735552  .00205930  00000+0  15660-2 0  99992 62092  43.0031 304.3387 0002442 273.1392  86.9196 15.70883469 86924

JSON: /api/v1/satellites/62092 · /tle

For live sub-satellite position, see the globe view (requires WebGL).

§ Visibility from observer

Set your observer location to see the next 7 days of passes ≥ 10°. The values pass through the URL so the page stays shareable.

No JS? Fill the form by hand. The geolocation button needs JavaScript.